User: anonymous   Login
Location: Unspecified
(0.0000°N, 0.0000°E)
Time: 06:44:40
(UTC+00:00)
Language:

STARLINK-4199 - Orbit

View from above orbital plane
View from above orbital plane
View from above satellite
View from above satellite

Ground track
Ground track

The orbit is defined by the following mean orbital elements,

1 52857U          26145.12214861 +.00000000 +00000-0 +10015-3 0 00003
2 52857  53.2123  41.0009 0001337  87.8017 272.3128 15.08831691    01
Epoch (UTC): 25 May 2026 02:55:53
Eccentricity: 0.0001337
inclination: 53.2123°
perigee height: 539 km
apogee height: 541 km
right ascension of ascending node: 41.0009°
argument of perigee: 87.8017°
revolutions per day: 15.08831691
mean anomaly at epoch: 272.3128°

The dashed part of the orbit path shows where the satellite is in the earth's shadow,  

DLR